Lander, WY

2:17 AM MDT on September 22, 2017 (GMT -0600)
Hunt

Weather History for KLND - May, 2013

Change the Weather History Date:

Thursday, May 23, 2013

  Actual Average Record
Temperature  
Mean Temperature 60 °F 56 °F  
Max Temperature 74 °F 69 °F 85 °F (1984)
Min Temperature 46 °F 42 °F 26 °F (1916)
Degree Days  
Heating Degree Days 5 10  
Month to date heating degree days 249 300  
Since 1 July heating degree days 7309 7554  
Cooling Degree Days 0 0  
Month to date cooling degree days 9 0  
Year to date cooling degree days 9 0  
Growing Degree Days 10 (Base 50)    
Moisture  
Dew Point 41 °F    
Average Humidity 57    
Maximum Humidity 86    
Minimum Humidity 28    
Precipitation  
Precipitation 0.00 in 0.07 in 1.46 in (1906)
Month to date precipitation 1.83 1.67  
Year to date precipitation 7.37 5.69  
Snow  
Snow 0.00 in 0.10 in - ()
Month to date snowfall 10.5 4.6  
Since 1 July snowfall 111.1 91.1  
Snow Depth 0.00 in    
Sea Level Pressure  
Sea Level Pressure 29.69 in    
Wind  
Wind Speed 7 mph (NNW)    
Max Wind Speed 23 mph    
Max Gust Speed 30 mph    
Visibility 10 miles    
Events      
T = Trace of Precipitation, MM = Missing Value Source: NWS Daily Summary

Daily Weather History Graph

Daily Weather History Graph

Search for Another Location

Airport or City:

Trip Planner

Search our weather history database for the weather conditions in past years. The results will help you decide how hot, cold, wet, or windy it might be!

Date:

Astronomy

May. 23, 2013 Rise Set
Actual Time 5:44 AM MDT 8:39 PM MDT
Civil Twilight 5:11 AM MDT 9:12 PM MDT
Nautical Twilight 4:28 AM MDT 9:55 PM MDT
Astronomical Twilight 3:39 AM MDT 10:45 PM MDT
Moon 7:13 PM MDT (5/23) 4:34 AM MDT (5/23)
Length of Visible Light 16h 01m
Length of Day
14h 54m
Waxing Gibbous, 97% of the Moon is Illuminated
May 23
Waxing Gibbous
May 24
Full
May 31
Last Quarter
Jun 8
New
Jun 16
First Quarter

Hourly Weather History & Observations

Time (MDT) Temp. Windchill Dew Point Humidity Pressure Visibility Wind Dir Wind Speed Gust Speed Precip Events Conditions
12:21 AM 53.6 °F - 41.0 °F 62% 29.84 in 10.0 mi North 12.7 mph - N/A   Clear
12:53 AM 51.1 °F - 42.1 °F 71% 29.74 in 10.0 mi NW 8.1 mph - N/A   Clear
1:53 AM 46.9 °F - 42.1 °F 83% 29.74 in 10.0 mi NW 9.2 mph - N/A   Clear
2:53 AM 46.0 °F 42.5 °F 41.0 °F 83% 29.75 in 10.0 mi WNW 6.9 mph - N/A   Clear
3:17 AM 46.4 °F 42.4 °F 41.0 °F 81% 29.88 in 10.0 mi WNW 8.1 mph - N/A   Mostly Cloudy
3:53 AM 46.9 °F - 41.0 °F 80% 29.75 in 10.0 mi NW 8.1 mph - N/A   Overcast
4:53 AM 46.9 °F - 41.0 °F 80% 29.75 in 10.0 mi NW 9.2 mph - N/A   Overcast
5:53 AM 46.9 °F - 42.1 °F 83% 29.76 in 10.0 mi WNW 6.9 mph - N/A   Overcast
6:53 AM 48.0 °F - 42.1 °F 80% 29.76 in 9.0 mi NNW 8.1 mph - N/A   Overcast
7:27 AM 48.2 °F - 42.8 °F 82% 29.91 in 9.0 mi NNW 9.2 mph - N/A   Scattered Clouds
7:53 AM 48.9 °F - 42.1 °F 77% 29.78 in 9.0 mi NNW 8.1 mph - N/A   Partly Cloudy
8:53 AM 52.0 °F - 43.0 °F 71% 29.76 in 10.0 mi NNW 10.4 mph - N/A   Clear
9:53 AM 55.9 °F - 43.0 °F 62% 29.75 in 10.0 mi North 10.4 mph - N/A   Mostly Cloudy
10:53 AM 57.9 °F - 43.0 °F 58% 29.72 in 10.0 mi NNE 6.9 mph - N/A   Overcast
11:20 AM 57.2 °F - 42.8 °F 59% 29.85 in 10.0 mi Variable 3.5 mph - N/A   Scattered Clouds
11:53 AM 60.1 °F - 43.0 °F 53% 29.69 in 10.0 mi Calm Calm - N/A   Clear
12:53 PM 62.1 °F - 44.1 °F 52% 29.68 in 10.0 mi North 5.8 mph - N/A   Clear
1:53 PM 64.0 °F - 44.1 °F 48% 29.65 in 10.0 mi Calm Calm - N/A   Clear
2:53 PM 66.9 °F - 44.1 °F 44% 29.61 in 10.0 mi North 5.8 mph - N/A   Clear
3:53 PM 69.1 °F - 46.0 °F 44% 29.57 in 10.0 mi Variable 5.8 mph - N/A   Clear
4:53 PM 73.0 °F - 44.1 °F 35% 29.53 in 10.0 mi Calm Calm - N/A   Clear
5:53 PM 72.0 °F - 45.0 °F 38% 29.50 in 10.0 mi NW 11.5 mph - N/A   Clear
6:53 PM 73.0 °F - 42.1 °F 33% 29.49 in 10.0 mi WNW 5.8 mph - N/A   Clear
7:53 PM 70.0 °F - 35.1 °F 28% 29.49 in 10.0 mi South 15.0 mph 21.9 mph N/A   Clear
8:53 PM 66.0 °F - 37.0 °F 34% 29.52 in 10.0 mi NNW 6.9 mph - N/A   Clear
9:53 PM 61.0 °F - 34.0 °F 36% 29.55 in 10.0 mi NNW 5.8 mph - N/A   Clear
10:53 PM 60.1 °F - 35.1 °F 39% 29.58 in 10.0 mi NW 11.5 mph - N/A   Clear
11:53 PM 57.0 °F - 35.1 °F 44% 29.62 in 10.0 mi NNW 9.2 mph - N/A   Clear